Weather observations for the past three days for
Bastrop, Morehouse Memorial Airport
| Date | Time (cdt) | Wind (kph) | Vis. (km) | Weather | Sky Cond. | Temperature (ºC) | Relative Humidity | Wind Chill (°C) | Heat Index (°C) | Pressure | Precipitation (cm) | ||||||
|---|---|---|---|---|---|---|---|---|---|---|---|---|---|---|---|---|---|
| Air | Dwpt | 6 hour | altimeter (cm) | sea level (mb) | 1 hr | 3 hr | 6 hr | ||||||||||
| Max. | Min. | ||||||||||||||||
| 03 | 18:30 | Calm | 0.00 | Fair | CLR | 33.1 | 24.1 | 59% | 39 | 76 | 0.0 | ||||||
| 03 | 18:10 | Calm | 0.00 | Fair | CLR | 34.5 | 22.8 | 51% | 40 | 75.97 | 0.0 | ||||||
| 03 | 17:50 | Calm | 0.00 | Fair | CLR | 35 | 21.6 | 46% | 39 | 76 | 0.0 | ||||||
| 03 | 17:30 | Calm | 0.00 | Fair | CLR | 35.4 | 21.6 | 45% | 40 | 75.97 | 0.0 | ||||||
| 03 | 17:10 | Calm | 0.00 | Fair | CLR | 35.5 | 21.8 | 45% | 40 | 75.97 | 0.0 | ||||||
| 03 | 16:50 | Calm | 0.00 | Fair | CLR | 35.6 | 21.9 | 45% | 40 | 76 | 0.0 | ||||||
| 03 | 16:30 | Calm | 0.00 | Partly Cloudy | SCT120 | 35.4 | 21.3 | 44% | 39 | 76 | 0.0 | ||||||
| 03 | 16:10 | Calm | 0.00 | Mostly Cloudy | BKN120 | 35.2 | 21.2 | 44% | 39 | 76 | 0.0 | ||||||
| 03 | 15:50 | Calm | 0.00 | Partly Cloudy | SCT100 | 35.4 | 21.5 | 44% | 39 | 76.02 | 0.0 | ||||||
| 03 | 15:30 | Calm | 0.00 | Partly Cloudy | SCT050 SCT100 | 35.4 | 21.9 | 45% | 40 | 76.05 | 0.0 | ||||||
| 03 | 15:10 | Calm | 0.00 | Partly Cloudy | SCT050 | 35.5 | 21.7 | 45% | 40 | 76.07 | 0.0 | ||||||
| 03 | 14:50 | Calm | 0.00 | Fair | CLR | 35.1 | 21.9 | 46% | 39 | 76.07 | 0.0 | ||||||
| 03 | 14:30 | Calm | 0.00 | Fair | CLR | 35.2 | 22.3 | 47% | 40 | 76.1 | 0.0 | ||||||
| 03 | 14:10 | Calm | 0.00 | Fair | CLR | 34.5 | 22 | 48% | 39 | 76.12 | 0.0 | ||||||
| 03 | 13:50 | Calm | 0.00 | Fair | CLR | 34.4 | 22.2 | 49% | 39 | 76.15 | 0.0 | ||||||
| 03 | 13:30 | Calm | 0.00 | Partly Cloudy | SCT046 SCT055 SCT075 | 34.3 | 22.1 | 49% | 39 | 76.17 | 0.0 | ||||||
| 03 | 13:10 | Calm | 0.00 | Fair | CLR | 34.2 | 22 | 49% | 38 | 76.17 | 0.0 | ||||||
| 03 | 12:50 | Calm | 0.00 | Fair | CLR | 34 | 22.1 | 50% | 38 | 76.2 | 0.0 | ||||||
| 03 | 12:30 | Calm | 0.00 | Fair | CLR | 34 | 22.1 | 50% | 38 | 76.2 | 0.0 | ||||||
| 03 | 12:10 | Calm | 0.00 | Fair | CLR | 33.3 | 21.5 | 50% | 37 | 76.23 | 0.0 | ||||||
| 03 | 11:50 | Calm | 0.00 | Fair | CLR | 33 | 22.1 | 53% | 37 | 76.25 | 0.0 | ||||||
| 03 | 11:30 | Calm | 0.00 | Fair | CLR | 32.7 | 22.1 | 54% | 37 | 76.28 | 0.0 | ||||||
| 03 | 11:10 | Calm | 0.00 | Fair | CLR | 32.3 | 22.4 | 56% | 37 | 76.28 | 0.0 | ||||||
| 03 | 10:50 | Calm | 0.00 | Fair | CLR | 31.9 | 22.4 | 57% | 36 | 76.28 | 0.0 | ||||||
| 03 | 10:30 | Calm | 0.00 | Fair | CLR | 31.9 | 22.4 | 57% | 36 | 76.28 | 0.0 | ||||||
| 03 | 10:10 | Calm | 0.00 | NULL | NULL | 31.1 | 22.3 | 59% | 35 | 76.28 | 0.0 | ||||||
| 03 | 09:50 | Calm | 0.00 | Fair | CLR | 30.3 | 23.1 | 65% | 35 | 76.28 | 0.0 | ||||||
| 03 | 09:30 | Calm | 0.00 | Fair | CLR | 29.9 | 23.5 | 69% | 34 | 76.28 | 0.0 | ||||||
| 03 | 09:10 | Calm | 0.00 | Fair | CLR | 28.8 | 23.4 | 73% | 33 | 76.28 | 0.0 | ||||||
| 03 | 08:50 | Calm | 0.00 | Fair | CLR | 28.2 | 23.6 | 76% | 32 | 76.28 | 0.0 | ||||||
| 03 | 08:30 | Calm | 0.00 | Fair | CLR | 27.3 | 23.8 | 81% | 31 | 76.3 | 0.0 | ||||||
| 03 | 08:10 | Calm | 0.00 | NULL | NULL | 26.3 | 23.6 | 85% | 29 | 76.3 | 0.0 | ||||||
| 03 | 07:50 | Calm | 0.00 | NULL | NULL | 25.4 | 23.8 | 91% | 27 | 76.3 | 0.0 | ||||||
| 03 | 07:30 | Calm | 0.00 | NULL | NULL | 24 | 23.5 | 97% | 23 | 76.28 | 0.0 | ||||||
| 03 | 07:10 | Calm | 0.00 | NULL | NULL | 23.2 | 22.7 | 97% | 76.28 | 0.0 | |||||||
| 03 | 06:50 | Calm | 0.00 | NULL | NULL | 23 | 22.4 | 25 | 22.8 | 96% | 76.28 | 0.0 | |||||
| 03 | 06:30 | Calm | 0.00 | NULL | NULL | 23.1 | 22.5 | 96% | 76.25 | 0.0 | |||||||
| 03 | 06:10 | Calm | 0.00 | NULL | NULL | 23 | 22.4 | 96% | 76.25 | 0.0 | |||||||
| 03 | 05:50 | Calm | 0.00 | NULL | NULL | 22.9 | 22.3 | 96% | 76.23 | 0.0 | |||||||
| 03 | 05:30 | Calm | 0.00 | NULL | NULL | 23.1 | 22.5 | 96% | 76.2 | 0.0 | |||||||
| 03 | 05:10 | Calm | 0.00 | NULL | NULL | 23.1 | 22.5 | 96% | 76.2 | 0.0 | |||||||
| 03 | 04:50 | Calm | 0.00 | NULL | NULL | 23.3 | 22.7 | 96% | 76.2 | 0.0 | |||||||
| 03 | 04:30 | Calm | 0.00 | NULL | NULL | 23 | 22.4 | 96% | 76.2 | 0.0 | |||||||
| 03 | 04:10 | Calm | 0.00 | NULL | NULL | 23.5 | 22.7 | 95% | 76.2 | 0.0 | |||||||
| 03 | 03:50 | Calm | 0.00 | NULL | NULL | 23.8 | 23 | 95% | 76.2 | 0.0 | |||||||
| 03 | 03:30 | Calm | 0.00 | NULL | NULL | 23.7 | 23 | 96% | 76.2 | 0.0 | |||||||
| 03 | 03:10 | Calm | 0.00 | NULL | NULL | 23.8 | 23 | 95% | 76.17 | 0.0 | |||||||
| 03 | 02:50 | Calm | 0.00 | NULL | NULL | 24 | 22.8 | 93% | 23 | 76.17 | 0.0 | ||||||
| 03 | 02:30 | Calm | 0.00 | NULL | NULL | 24 | 22.8 | 93% | 23 | 76.15 | 0.0 | ||||||
| 03 | 02:10 | Calm | 0.00 | NULL | NULL | 24.1 | 22.6 | 91% | 24 | 76.15 | 0.0 | ||||||
| 03 | 01:50 | Calm | 0.00 | NULL | NULL | 24.4 | 22.9 | 91% | 24 | 76.17 | 0.0 | ||||||
| 03 | 01:30 | Calm | 0.00 | NULL | NULL | 24.5 | 22.7 | 90% | 25 | 76.17 | 0.0 | ||||||
| 03 | 01:10 | Calm | 0.00 | NULL | NULL | 25 | 22.7 | 87% | 26 | 76.17 | 0.0 | ||||||
| 03 | 00:50 | Calm | 0.00 | NULL | NULL | 24.4 | 22.7 | 31.1 | 24.1 | 90% | 24 | 76.2 | 0.0 | ||||
| 03 | 00:30 | Calm | 0.00 | NULL | NULL | 24.5 | 22.7 | 90% | 25 | 76.2 | 0.0 | ||||||
| 03 | 00:10 | Calm | 0.00 | NULL | NULL | 24.6 | 22.6 | 89% | 25 | 76.2 | 0.0 | ||||||
| 02 | 23:50 | Calm | 0.00 | NULL | NULL | 24.8 | 22.8 | 89% | 25 | 76.2 | 0.0 | ||||||
| 02 | 23:30 | Calm | 0.00 | NULL | NULL | 24.5 | 22.8 | 90% | 25 | 76.2 | 0.0 | ||||||
| 02 | 23:10 | Calm | 0.00 | NULL | NULL | 25.1 | 22.8 | 87% | 26 | 76.2 | 0.0 | ||||||
| 02 | 22:50 | Calm | 0.00 | Fair | CLR | 25.9 | 23 | 84% | 28 | 76.2 | 0.0 | ||||||
| 02 | 22:30 | Calm | 0.00 | NULL | NULL | 25 | 23.2 | 90% | 26 | 76.2 | 0.0 | ||||||
| 02 | 22:10 | Calm | 0.00 | NULL | NULL | 24.6 | 23.2 | 92% | 25 | 76.2 | 0.0 | ||||||
| 02 | 21:50 | Calm | 0.00 | NULL | NULL | 25.1 | 23 | 88% | 26 | 76.2 | 0.0 | ||||||
| 02 | 21:30 | Calm | 0.00 | NULL | NULL | 25.7 | 23.2 | 86% | 27 | 76.2 | 0.0 | ||||||
| 02 | 21:10 | Calm | 0.00 | NULL | NULL | 25.5 | 23.2 | 87% | 27 | 76.17 | 0.0 | ||||||
| 02 | 20:50 | Calm | 0.00 | Fair | CLR | 26.2 | 23.2 | 84% | 28 | 76.15 | 0.0 | ||||||
| 02 | 20:30 | Calm | 0.00 | Fair | CLR | 27.7 | 23.2 | 77% | 31 | 76.15 | 0.0 | ||||||
| 02 | 20:10 | Calm | 0.00 | Fair | CLR | 28.6 | 23.3 | 73% | 32 | 76.15 | 0.0 | ||||||
| 02 | 19:50 | Calm | 0.00 | Fair | CLR | 29.1 | 23.2 | 71% | 33 | 76.17 | 0.0 | ||||||
| 02 | 19:30 | Calm | 0.00 | Fair | CLR | 29.5 | 23.5 | 70% | 34 | 76.15 | 0.0 | ||||||
| 02 | 19:10 | Calm | 0.00 | Fair | CLR | 29.7 | 23.4 | 69% | 34 | 76.12 | 0.0 | ||||||
| 02 | 18:50 | Calm | 0.00 | Fair | CLR | 31 | 23 | 35.7 | 30.2 | 62% | 35 | 76.12 | 0.0 | ||||
| 02 | 18:30 | Calm | 0.00 | Fair | CLR | 30.5 | 23.4 | 66% | 35 | 76.1 | 0.0 | ||||||
| 02 | 18:10 | Calm | 0.00 | Fair | CLR | 32.2 | 22.9 | 58% | 37 | 76.1 | 0.0 | ||||||
| 02 | 17:50 | Calm | 0.00 | Fair | CLR | 32.7 | 22.3 | 54% | 37 | 76.07 | 0.0 | ||||||
| 02 | 17:30 | Calm | 0.00 | Fair | CLR | 33.9 | 21.4 | 48% | 38 | 76.07 | 0.0 | ||||||
| 02 | 17:10 | Calm | 0.00 | Fair | CLR | 35.5 | 21.4 | 44% | 39 | 76.07 | 0.0 | ||||||
| 02 | 16:50 | Calm | 0.00 | Fair | CLR | 35.5 | 21.1 | 43% | 39 | 76.1 | 0.0 | ||||||
| 02 | 16:30 | Calm | 0.00 | Partly Cloudy | SCT060 | 35 | 21.3 | 45% | 39 | 76.12 | 0.0 | ||||||
| 02 | 16:10 | Calm | 0.00 | Partly Cloudy | SCT060 | 35.2 | 21.5 | 45% | 39 | 76.15 | 0.0 | ||||||
| 02 | 15:50 | Calm | 0.00 | Partly Cloudy | SCT060 | 35.3 | 21.6 | 45% | 39 | 76.17 | 0.0 | ||||||
| 02 | 15:30 | Calm | 0.00 | Partly Cloudy | SCT050 | 34.1 | 21.5 | 48% | 38 | 76.17 | 0.0 | ||||||
| 02 | 15:10 | Calm | 0.00 | Partly Cloudy | SCT050 | 34.9 | 21.5 | 46% | 39 | 76.2 | 0.0 | ||||||
| 02 | 14:50 | Calm | 0.00 | Partly Cloudy | SCT050 | 35.1 | 21.8 | 46% | 39 | 76.2 | 0.0 | ||||||
| 02 | 14:30 | Calm | 0.00 | Fair | CLR | 35 | 21.9 | 46% | 39 | 76.2 | 0.0 | ||||||
| 02 | 14:10 | Calm | 0.00 | Partly Cloudy | SCT049 | 34.8 | 21.9 | 47% | 39 | 76.23 | 0.0 | ||||||
| 02 | 13:50 | Calm | 0.00 | Partly Cloudy | SCT049 | 34.6 | 22.1 | 48% | 39 | 76.25 | 0.0 | ||||||
| 02 | 13:30 | Calm | 0.00 | Partly Cloudy | SCT045 | 34.3 | 21.7 | 48% | 38 | 76.25 | 0.0 | ||||||
| 02 | 13:10 | Calm | 0.00 | Partly Cloudy | SCT045 | 34.1 | 22.1 | 50% | 38 | 76.28 | 0.0 | ||||||
| 02 | 12:50 | SE 6 | 0.00 | Partly Cloudy | SCT045 | 33 | 21.9 | 33.5 | 22.6 | 52% | 37 | 76.3 | 0.0 | ||||
| 02 | 12:30 | Calm | 0.00 | Partly Cloudy | SCT039 SCT044 | 33.2 | 22.2 | 52% | 37 | 76.33 | 0.0 | ||||||
| 02 | 12:10 | Calm | 0.00 | Partly Cloudy | SCT039 | 33.2 | 22.9 | 55% | 38 | 76.35 | 0.0 | ||||||
| 02 | 11:50 | Calm | 0.00 | Partly Cloudy | SCT038 | 32.9 | 22.6 | 55% | 37 | 76.38 | 0.0 | ||||||
| 02 | 11:30 | Calm | 0.00 | Partly Cloudy | SCT038 | 32.5 | 23.3 | 58% | 38 | 76.4 | 0.0 | ||||||
| 02 | 11:10 | Calm | 0.00 | Fair | CLR | 32 | 23.3 | 60% | 37 | 76.43 | 0.0 | ||||||
| 02 | 10:50 | Calm | 0.00 | Partly Cloudy | SCT024 | 31.5 | 23.1 | 61% | 36 | 76.43 | 0.0 | ||||||
| 02 | 10:30 | Calm | 0.00 | Mostly Cloudy | BKN022 | 31.5 | 23.8 | 64% | 37 | 76.43 | 0.0 | ||||||
| 02 | 10:10 | Calm | 0.00 | Partly Cloudy | SCT019 | 30.6 | 23.8 | 67% | 36 | 76.4 | 0.0 | ||||||
| 02 | 09:50 | Calm | 0.00 | Partly Cloudy | SCT015 SCT021 | 29.9 | 24.1 | 71% | 35 | 76.4 | 0.0 | ||||||
| 02 | 09:30 | Calm | 0.00 | Fair | CLR | 29.1 | 24.1 | 74% | 34 | 76.4 | 0.0 | ||||||
| 02 | 09:10 | Calm | 0.00 | Fair | CLR | 28.4 | 24 | 77% | 33 | 76.38 | 0.0 | ||||||
| 02 | 08:50 | Calm | 0.00 | Partly Cloudy | SCT002 | 27.9 | 23.8 | 78% | 32 | 76.38 | 0.0 | ||||||
| 02 | 08:30 | Calm | 0.00 | Fair | CLR | 27.1 | 23.4 | 80% | 30 | 76.38 | 0.0 | ||||||
| 02 | 08:10 | Calm | 0.00 | Fair | CLR | 26.3 | 23.2 | 83% | 28 | 76.38 | 0.0 | ||||||
| 02 | 07:50 | Calm | 0.00 | NULL | NULL | 25.6 | 23.2 | 87% | 27 | 76.4 | 0.0 | ||||||
| 02 | 07:30 | Calm | 0.00 | NULL | NULL | 24.1 | 23.5 | 96% | 23 | 76.35 | 0.0 | ||||||
| 02 | 07:10 | Calm | 0.00 | NULL | NULL | 22.9 | 22.4 | 97% | 76.38 | 0.0 | |||||||
| 02 | 06:50 | Calm | 0.00 | NULL | NULL | 22.7 | 22.2 | 25 | 22.6 | 97% | 76.35 | 0.0 | |||||
| 02 | 06:30 | Calm | 0.00 | NULL | NULL | 22.6 | 22.1 | 97% | 76.33 | 0.0 | |||||||
| 02 | 06:10 | Calm | 0.00 | NULL | NULL | 22.7 | 22 | 96% | 76.33 | 0.0 | |||||||
| 02 | 05:50 | Calm | 0.00 | NULL | NULL | 23 | 22.3 | 96% | 76.3 | 0.0 | |||||||
| 02 | 05:30 | Calm | 0.00 | NULL | NULL | 23.1 | 22.5 | 96% | 76.3 | 0.0 | |||||||
| 02 | 05:10 | Calm | 0.00 | NULL | NULL | 23.1 | 22.3 | 95% | 76.3 | 0.0 | |||||||
| 02 | 04:50 | Calm | 0.00 | NULL | NULL | 23.1 | 22.5 | 96% | 76.28 | 0.0 | |||||||
| 02 | 04:30 | Calm | 0.00 | NULL | NULL | 23.5 | 22.7 | 95% | 76.3 | 0.0 | |||||||
| 02 | 04:10 | Calm | 0.00 | NULL | NULL | 23.1 | 22.5 | 96% | 76.28 | 0.0 | |||||||
| 02 | 03:50 | Calm | 0.00 | NULL | NULL | 23.5 | 22.7 | 95% | 76.28 | 0.0 | |||||||
| 02 | 03:30 | Calm | 0.00 | NULL | NULL | 23.3 | 22.4 | 95% | 76.25 | 0.0 | |||||||
| 02 | 03:10 | Calm | 0.00 | NULL | NULL | 23.7 | 22.6 | 94% | 76.25 | 0.0 | |||||||
| 02 | 02:30 | Calm | 0.00 | NULL | NULL | 24.5 | 22.6 | 89% | 25 | 76.23 | 0.0 | ||||||
| 02 | 02:10 | Calm | 0.00 | NULL | NULL | 24.3 | 22.5 | 90% | 24 | 76.25 | 0.0 | ||||||
| 02 | 01:50 | Calm | 0.00 | NULL | NULL | 24.3 | 22.6 | 90% | 24 | 76.28 | 0.0 | ||||||
| 02 | 01:30 | Calm | 0.00 | NULL | NULL | 24.4 | 22.5 | 89% | 24 | 76.28 | 0.0 | ||||||
| 02 | 01:10 | Calm | 0.00 | NULL | NULL | 24.6 | 22.5 | 88% | 25 | 76.28 | 0.0 | ||||||
| 02 | 00:50 | Calm | 0.00 | Fair | CLR | 25.3 | 22.5 | 32 | 24.5 | 85% | 26 | 76.28 | 0.0 | ||||
| 02 | 00:30 | Calm | 0.00 | NULL | NULL | 24.6 | 22.5 | 88% | 25 | 76.25 | 0.0 | ||||||
| 02 | 00:10 | Calm | 0.00 | NULL | NULL | 24.7 | 22.5 | 88% | 25 | 76.25 | 0.0 | ||||||
| 01 | 23:50 | Calm | 0.00 | Fair | CLR | 25.1 | 22.4 | 85% | 26 | 76.28 | 0.0 | ||||||
| 01 | 23:30 | Calm | 0.00 | Fair | CLR | 25.3 | 22.5 | 85% | 26 | 76.28 | 0.0 | ||||||
| 01 | 23:10 | Calm | 0.00 | Fair | CLR | 25.2 | 22.4 | 85% | 26 | 76.28 | 0.0 | ||||||
| 01 | 22:50 | Calm | 0.00 | Fair | CLR | 25 | 22.3 | 85% | 26 | 76.28 | 0.0 | ||||||
| 01 | 22:30 | Calm | 0.00 | Fair | CLR | 25.8 | 22.1 | 80% | 27 | 76.28 | 0.0 | ||||||
| 01 | 22:10 | Calm | 0.00 | Fair | CLR | 26.5 | 22 | 76% | 28 | 76.28 | 0.0 | ||||||
| 01 | 21:50 | Calm | 0.00 | Fair | CLR | 27.7 | 21.7 | 70% | 30 | 76.28 | 0.0 | ||||||
| 01 | 21:30 | Calm | 0.00 | Fair | CLR | 28 | 21.5 | 68% | 30 | 76.25 | 0.0 | ||||||
| 01 | 21:10 | Calm | 0.00 | Fair | CLR | 26.7 | 22.2 | 76% | 29 | 76.23 | 0.0 | ||||||
| 01 | 20:50 | Calm | 0.00 | Fair | CLR | 27.1 | 22.2 | 75% | 29 | 76.2 | 0.0 | ||||||
| 01 | 20:30 | Calm | 0.00 | Fair | CLR | 27.5 | 22.4 | 74% | 30 | 76.17 | 0.0 | ||||||
| 01 | 20:10 | Calm | 0.00 | Fair | CLR | 27.4 | 22.6 | 75% | 30 | 76.17 | 0.0 | ||||||
| 01 | 19:50 | Calm | 0.00 | Fair | CLR | 28.3 | 22.6 | 71% | 31 | 76.15 | 0.0 | ||||||
| 01 | 19:30 | Calm | 0.00 | Fair | CLR | 29.3 | 22.6 | 67% | 33 | 76.15 | 0.0 | ||||||
| 01 | 19:10 | Calm | 0.00 | Fair | CLR | 31.1 | 22.5 | 60% | 35 | 76.12 | 0.0 | ||||||
| 01 | 18:30 | Calm | 0.00 | Fair | CLR | 33.3 | 21.9 | 51% | 37 | 76.15 | 0.0 | ||||||
| 01 | 18:10 | Calm | 0.00 | Fair | CLR | 33.8 | 21.5 | 49% | 37 | 76.15 | 0.0 | ||||||
| 01 | 17:50 | Calm | 0.00 | Fair | CLR | 34.3 | 21.2 | 46% | 38 | 76.15 | 0.0 | ||||||
| 01 | 17:30 | Calm | 0.00 | Fair | CLR | 34.6 | 21.1 | 45% | 38 | 76.12 | 0.0 | ||||||
| 01 | 17:10 | Calm | 0.00 | Fair | CLR | 34.8 | 21.2 | 45% | 38 | 76.12 | 0.0 | ||||||
| 01 | 16:50 | Calm | 0.00 | Fair | CLR | 35 | 21.1 | 44% | 39 | 76.15 | 0.0 | ||||||
| 01 | 16:30 | Calm | 0.00 | Fair | CLR | 34.9 | 21.3 | 45% | 39 | 76.17 | 0.0 | ||||||
| 01 | 16:10 | Calm | 0.00 | Fair | CLR | 34.9 | 21.2 | 45% | 39 | 76.2 | 0.0 | ||||||
| 01 | 15:50 | E 6 | 0.00 | Fair | CLR | 35 | 20.8 | 43% | 38 | 76.23 | 0.0 | ||||||
| 01 | 15:30 | SE 11 | 0.00 | Fair | CLR | 34.8 | 20.4 | 43% | 38 | 76.25 | 0.0 | ||||||
| 01 | 15:10 | Calm | 0.00 | Fair | CLR | 34.9 | 21 | 44% | 38 | 76.28 | 0.0 | ||||||
| 01 | 14:50 | Calm | 0.00 | Fair | CLR | 34.6 | 21.8 | 47% | 39 | 76.28 | 0.0 | ||||||
| 01 | 14:30 | Calm | 0.00 | Fair | CLR | 34.5 | 21.8 | 48% | 39 | 76.28 | 0.0 | ||||||
| 01 | 14:10 | Calm | 0.00 | Fair | CLR | 34.6 | 21.6 | 47% | 39 | 76.28 | 0.0 | ||||||
| 01 | 13:30 | Calm | 0.00 | Partly Cloudy | SCT049 | 34.5 | 22 | 48% | 39 | 76.3 | 0.0 | ||||||
| 01 | 13:10 | Calm | 0.00 | Fair | CLR | 33.9 | 22 | 50% | 38 | 76.33 | 0.0 | ||||||
| 01 | 12:30 | E 6 | 0.00 | Partly Cloudy | SCT049 | 33.6 | 21.6 | 49% | 37 | 76.35 | 0.0 | ||||||
| 01 | 12:10 | E 9 | 0.00 | Fair | CLR | 33.7 | 21.6 | 49% | 37 | 76.38 | 0.0 | ||||||
| 01 | 11:30 | Calm | 0.00 | Fair | CLR | 33.6 | 21.4 | 49% | 37 | 76.4 | 0.0 | ||||||
| 01 | 11:10 | Calm | 0.00 | Fair | CLR | 33.3 | 21.7 | 51% | 37 | 76.4 | 0.0 | ||||||
| 01 | 10:50 | Calm | 0.00 | Fair | CLR | 32.7 | 22.3 | 54% | 37 | 76.4 | 0.0 | ||||||
| 01 | 10:30 | Calm | 0.00 | Partly Cloudy | SCT120 | 32.2 | 22.7 | 57% | 37 | 76.4 | 0.0 | ||||||
| 01 | 10:10 | Calm | 0.00 | Partly Cloudy | SCT120 | 31.6 | 22.8 | 60% | 36 | 76.4 | 0.0 | ||||||
| 01 | 09:50 | Calm | 0.00 | Partly Cloudy | SCT120 | 30.8 | 22.8 | 62% | 35 | 76.4 | 0.0 | ||||||
| 01 | 09:30 | Calm | 0.00 | Fair | CLR | 29.8 | 23.2 | 68% | 34 | 76.4 | 0.0 | ||||||
| 01 | 09:10 | Calm | 0.00 | Fair | CLR | 29.1 | 23.2 | 71% | 33 | 76.43 | 0.0 | ||||||
| 01 | 08:50 | Calm | 0.00 | Partly Cloudy | SCT110 | 28.5 | 23.3 | 73% | 32 | 76.4 | 0.0 | ||||||
| 01 | 08:30 | Calm | 0.00 | Fair | CLR | 28 | 23.3 | 76% | 31 | 76.43 | 0.0 | ||||||
| 01 | 08:10 | Calm | 0.00 | Fair | CLR | 26.9 | 23.3 | 81% | 30 | 76.43 | 0.0 | ||||||
| 01 | 07:30 | Calm | 0.00 | NULL | NULL | 24.5 | 23.2 | 93% | 24 | 76.4 | 0.0 | ||||||
| 01 | 07:10 | Calm | 0.00 | NULL | NULL | 23.1 | 22.6 | 97% | 76.4 | 0.0 | |||||||
| 01 | 06:50 | Calm | 0.00 | NULL | NULL | 22.7 | 22.1 | 27.3 | 22.7 | 96% | 76.38 | 0.0 | |||||
| 01 | 06:30 | Calm | 0.00 | NULL | NULL | 22.8 | 22.3 | 97% | 76.35 | 0.0 | |||||||
| 01 | 06:10 | Calm | 0.00 | NULL | NULL | 22.8 | 22.3 | 97% | 76.35 | 0.0 | |||||||
| 01 | 05:50 | Calm | 0.00 | NULL | NULL | 22.7 | 22.1 | 96% | 76.33 | 0.0 | |||||||
| 01 | 05:30 | Calm | 0.00 | NULL | NULL | 23 | 22.2 | 95% | 76.33 | 0.0 | |||||||
| 01 | 05:10 | Calm | 0.00 | NULL | NULL | 23 | 22.1 | 95% | 76.33 | 0.0 | |||||||
| 01 | 04:30 | Calm | 0.00 | NULL | NULL | 23.4 | 22.5 | 95% | 76.33 | 0.0 | |||||||
| 01 | 04:10 | Calm | 0.00 | NULL | NULL | 23.5 | 22.3 | 93% | 76.33 | 0.0 | |||||||
| 01 | 03:50 | Calm | 0.00 | NULL | NULL | 23.8 | 22.3 | 91% | 76.3 | 0.0 | |||||||
| 01 | 03:30 | Calm | 0.00 | NULL | NULL | 24.1 | 22.4 | 90% | 24 | 76.3 | 0.0 | ||||||
| 01 | 03:10 | Calm | 0.00 | NULL | NULL | 24.1 | 22.5 | 91% | 24 | 76.3 | 0.0 | ||||||
| 01 | 02:30 | Calm | 0.00 | NULL | NULL | 24.4 | 22.2 | 88% | 25 | 76.3 | 0.0 | ||||||
| 01 | 02:10 | Calm | 0.00 | Fair | CLR | 25.1 | 22.2 | 84% | 26 | 76.28 | 0.0 | ||||||
| 01 | 01:50 | Calm | 0.00 | Fair | CLR | 26 | 22.2 | 80% | 28 | 76.28 | 0.0 | ||||||
| 01 | 01:30 | Calm | 0.00 | Fair | CLR | 26.1 | 22 | 78% | 28 | 76.28 | 0.0 | ||||||
| 01 | 01:10 | Calm | 0.00 | Fair | CLR | 27.1 | 21.8 | 73% | 29 | 76.28 | 0.0 | ||||||
| 01 | 00:50 | Calm | 0.00 | Fair | CLR | 25.9 | 21.8 | 31.1 | 24.7 | 78% | 27 | 76.28 | 0.0 | ||||
| 01 | 00:30 | Calm | 0.00 | Fair | CLR | 25 | 22.1 | 84% | 26 | 76.25 | 0.0 | ||||||
| 01 | 00:10 | Calm | 0.00 | Fair | CLR | 24.8 | 22 | 84% | 25 | 76.25 | 0.0 | ||||||
| 31 | 23:50 | Calm | 0.00 | Fair | CLR | 24.7 | 22.3 | 87% | 25 | 76.25 | 0.0 | ||||||
| 31 | 23:30 | Calm | 0.00 | Fair | CLR | 25.1 | 22.1 | 84% | 26 | 76.23 | 0.0 | ||||||
| 31 | 23:10 | Calm | 0.00 | Fair | CLR | 24.9 | 22.2 | 85% | 26 | 76.25 | 0.0 | ||||||
| 31 | 22:50 | Calm | 0.00 | Fair | CLR | 25.1 | 22.2 | 84% | 26 | 76.25 | 0.0 | ||||||
| 31 | 22:30 | Calm | 0.00 | Fair | CLR | 25.1 | 22.4 | 85% | 26 | 76.25 | 0.0 | ||||||
| 31 | 22:10 | Calm | 0.00 | Fair | CLR | 25.6 | 22.2 | 82% | 27 | 76.25 | 0.0 | ||||||
| 31 | 21:50 | Calm | 0.00 | Fair | CLR | 26.5 | 22 | 76% | 28 | 76.25 | 0.0 | ||||||
| 31 | 21:30 | Calm | 0.00 | Fair | CLR | 26.1 | 22.1 | 79% | 28 | 76.23 | 0.0 | ||||||
| 31 | 21:10 | Calm | 0.00 | Fair | CLR | 26.4 | 22.1 | 77% | 28 | 76.23 | 0.0 | ||||||
| 31 | 20:30 | Calm | 0.00 | Fair | CLR | 26.8 | 22.2 | 76% | 29 | 76.2 | 0.0 | ||||||
| 31 | 20:10 | Calm | 0.00 | Fair | CLR | 27.2 | 22.3 | 75% | 30 | 76.2 | 0.0 | ||||||
| 31 | 19:50 | Calm | 0.00 | Fair | CLR | 28 | 22.2 | 71% | 31 | 76.2 | 0.0 | ||||||
| 31 | 19:30 | Calm | 0.00 | Fair | CLR | 28.3 | 22.6 | 71% | 31 | 76.17 | 0.0 | ||||||
| 31 | 19:10 | Calm | 0.00 | Fair | CLR | 29.9 | 23.2 | 67% | 34 | 76.17 | 0.0 | ||||||
| Date | Time (cdt) | Wind (kph) | Vis. (km) | Weather | Sky Cond. | Air | Dwpt | Max. | Min. | Relative Humidity | Wind Chill (°C) | Heat Index (°C) | altimeter (cm) | sea level (mb) | 1 hr | 3 hr | 6 hr |
| 6 hour | |||||||||||||||||
| Temperature (ºC) | Pressure | Precipitation (cm) | |||||||||||||||